THORAD DELTA 1 DEB, 37148

Orbit data source: Space-Track

THORAD DELTA 1 DEB, 37148 is space debris in SSO originally from a launch on Fri, 15 Nov 1974 UTC launched from the Air Force Western Test Range (AFWTR). Debris objects in space refer to the collection of defunct objects orbiting the Earth. Examples of debris include non-operational satellites, rocket bodies, and fragments generated from explosions, collisions, or faulty payload assembly.

Loading next visibility...
Identifier
37148, 1974-089FH
Orbit
SSO
Country
Flag of USUS
Related business
Manufacturer
Unknown
Mission
Spacecraft
Bus & Motor
Unknown
Mass
Unknown
Launch date (UTC)
1974-11-15 (51 years ago)
Launch vehicle
Unknown
Launch site
Air Force Western Test Range (AFWTR)
Object type
Payload
Rocket body
Debris
Shape & HBR
Unknown shape, 0.1 m
Radar Cross Section
Small (<0.1 m²)

Expand to show TLE details & history
Last TLE update: 1 day ago

TLE from 1 day ago
0 THORAD DELTA 1 DEB
1 37148U 74089FH  25353.24699669  .00009426  00000-0  39696-2 0  9996
2 37148 101.7031 120.9984 0020444 257.7416 170.9983 14.25929272770944
Epoch: 2025-12-19T05:55Z
TLE epoch observation values (Epoch: 2025-12-19T05:55:40.514Z)
Latitude
65.98494°
Longitude
-83.55799°
Altitude
831.134 km
Speed
7.436 km/s
True Right ascension
06h 13m 48s
True Declination
65° 51' 29"
Sunlit
Object was in full shadow at epoch
Visualization orbit readout
Latitude
Unknown
Longitude
Unknown
Altitude
Unknown
Speed
Unknown
Apparent Right ascension
Unknown
Apparent Declination
Unknown
Sunlit
N/A
Visualization observer readout
Local Sidereal Time
07:04:26
Azimuth
Unknown
Elevation
Unknown
Doppler factor
Unknown
Orbital elements
Apogee altitude
817.369 km
Perigee altitude
788.008 km
Semi-major axis
7,180.825 km
Eccentricity
0.00204
Inclination
101.7031°
RAAN
120.9984°
Arg. of periapsis
257.7416°
True anomaly
171.03486°
Mean anomaly
170.9983°
Eccentric anomaly
171.01659°
Mean motion
3.56682 °/min
Orbital period
100.93 mins
BSTAR
0.0039696
Loading maneuver chart data...
Computing Atmospheric mass density...

Documentation

Showing up to 5 results
|